Weather Roundup
Issued by NWS Corpus Christi, TX

Home | Current Version | Previous Version | Text Only | Print | Product List | Glossary On
Versions: 1 2 3 4 5 6 7 8 9 10 11 12 13 14 15 16 17 18 19 20 21 22 23 24 25 26 27 28 29 30 31 32 33 34 35 36 37 38 39 40 41 42 43 44 45 46 47 48 49 50
000
ASUS44 KCRP 021610
HRRCRP

SOUTH TEXAS REGIONAL WEATHER ROUNDUP
NATIONAL WEATHER SERVICE CORPUS CHRISTI TX
1100 AM CDT THU OCT 02 2014


TXZ229>244-021700-
...CORPUS CHRISTI AREA OBSERVATIONS...

CITY           SKY/WX    TMP DP  RH WIND       PRES   REMARKS
CORPUS CHRISTI PTSUNNY   87  78  74 S21G28    29.88S HX 100
NAS CORPUS CHR PTSUNNY   87  80  79 S18G26    29.88S HX 103
ROCKPORT       MOSUNNY   87  78  74 S10G24    29.88S HX 100
KINGSVILLE NAS MOSUNNY   89  79  72 S16G24    29.87R HX 104
ALICE          PTSUNNY   86  77  74 S16       29.87S HX  97
FALFURRIAS     MOSUNNY   85  77  77 S15G21    29.87F HX  95
$$

...VICTORIA AREA OBSERVATIONS...

CITY           SKY/WX    TMP DP  RH WIND       PRES   REMARKS
VICTORIA       MOSUNNY   89  79  72 S15       29.90S HX 104
BEEVILLE       PTSUNNY   88  76  68 S14       29.90R HX  98
PLEASANTON     MOSUNNY   86  72  62 SE14      29.89S HX  92
SAN ANTONIO    PTSUNNY   84  73  69 S12       29.91R HX  90
$$

...LAREDO AREA OBSERVATIONS...

CITY           SKY/WX    TMP DP  RH WIND       PRES   REMARKS
LAREDO         MOSUNNY   87  74  65 S15       29.89S HX  95
COTULLA        SUNNY     86  72  62 S12       29.87R HX  92
DEL RIO        CLOUDY    80  74  81 SE6       29.88R
MCALLEN        MOSUNNY   87  77  72 SE18G24   29.87S HX  99
HEBBRONVILLE   MOSUNNY   84  75  75 S16G23    29.89F HX  91
$$

...OTHER TEXAS OBSERVATIONS...

CITY           SKY/WX    TMP DP  RH WIND       PRES   REMARKS
BROWNSVILLE    MOSUNNY   88  78  72 S20G25    29.88S HX 101
HOUSTON        MOSUNNY   87  75  67 S13G21    29.91S HX  96
COL. STATION   MOSUNNY   84  74  71 S12G23    29.88S HX  91
AUSTIN         CLOUDY    83  74  74 S15G23    29.88S
WACO           CLOUDY    85  73  67 S18G24    29.85S HX  91
FORT WORTH     PTSUNNY   86  72  62 S17G24    29.82R HX  92
WICHITA FALLS  MOSUNNY   83  67  58 SW14G25   29.77F
LUBBOCK        MOSUNNY   66  48  52 N18G28    30.01R
EL PASO        SUNNY     73  37  27 N15       30.11R
$$

...MARINE OBSERVATIONS...

STATION/POSITION TIME  SKY/WX   TEMP    WIND        PRES    VSBY  WAVE   SWELL
                                AIR SEA DIR/SP/G                  HT/PER HT/PER
                 (UTC)          (F)     (DEG/KT/KT) (MB)    (MI)  (FT/S) (FT/S)
PORT ARANSAS     1600            83 83  160/ 14/ 15 1012.6S
BUOY 90 E PORT A 1600            84 83  170/ 14/ 16 1013.3R         4/ 5
BUOY 45 SE BAFFI 1600            84 83  160/ 14/ 17 1011.7R         4/ 7
BUOY 200 E PT IS 1600            84 84  170/ 14/ 17 1014.1R         3/ 5
BUOY 15 E GALVES 1600            83 82  180/ 12/ 14 1013.4R         3/ 5   2/ 6
$$



USA.gov is the U.S. government's official web portal to all federal, state and local government web resources and services.